This is the latest recevied weather packets stored in our database for station/object WD7CGF. If no packets are shown the sender has not sent any weather packets the latest 10 day(s).
| Time | Temp. | Humidity | Pressure | Rain* | Wind** | Luminosity | Snow |
|---|---|---|---|---|---|---|---|
| 1788115128 | 18.89° C | 51% | 1016.4 hPa | 0 mm | - | - | - |
| 1788114523 | 18.89° C | 54% | 1016.4 hPa | 0 mm | - | - | - |
| 1788113916 | 18.89° C | 53% | 1016.4 hPa | 0 mm | - | - | - |
| 1788113313 | 18.89° C | 52% | 1016.2 hPa | 0 mm | - | - | - |
| 1788112727 | 18.89° C | 53% | 1016.2 hPa | 0 mm | - | - | - |
| 1788112119 | 18.89° C | 54% | 1016.2 hPa | 0 mm | - | - | - |
| 1788111513 | 18.33° C | 54% | 1016.4 hPa | 0 mm | - | - | - |
| 1788110926 | 18.33° C | 55% | 1016.8 hPa | 0 mm | - | - | - |
| 1788110320 | 18.33° C | 57% | 1016.8 hPa | 0 mm | - | - | - |
| 1788109713 | 17.22° C | 57% | 1016.8 hPa | 0 mm | - | - | - |
| 1788109112 | 17.22° C | 55% | 1016.9 hPa | 0 mm | - | - | - |
| 1788108525 | 17.22° C | 60% | 1016.9 hPa | 0 mm | - | - | - |
| 1788107918 | 16.67° C | 64% | 1017.1 hPa | 0 mm | - | - | - |
| 1788107316 | 15.56° C | 65% | 1017.3 hPa | 0 mm | - | - | - |
| 1788106729 | 15.56° C | 67% | 1017.3 hPa | 0 mm | - | - | - |
| 1788106122 | 15° C | 70% | 1017.5 hPa | 0 mm | - | - | - |
| 1788105516 | 14.44° C | 69% | 1017.6 hPa | 0 mm | - | - | - |
| 1788104928 | 14.44° C | 71% | 1017.6 hPa | 0 mm | - | - | - |
| 1788104324 | 14.44° C | 72% | 1017.7 hPa | 0 mm | - | - | - |
| 1788103718 | 13.89° C | 73% | 1018 hPa | 0 mm | - | - | - |
| 1788103115 | 13.33° C | 77% | 1018 hPa | 0 mm | - | - | - |
| 1788102526 | 12.22° C | 82% | 1017.2 hPa | 0 mm | - | - | - |
| 1788101920 | 11.11° C | 87% | 1017.6 hPa | 0 mm | - | - | - |
| 1788101313 | 10° C | 89% | 1017.6 hPa | 0 mm | - | - | - |
| 1788100726 | 8.33° C | 92% | 1017.8 hPa | 0 mm | - | - | - |
* Rain latest hour (hover to see other rain measurements)
** Current wind speed in m/s (hover to see current wind gust speed)